This is the latest recevied weather packets stored in our database for station/object DH0DM-13. If no packets are shown the sender has not sent any weather packets the latest 10 day(s).
| Time | Temp. | Humidity | Pressure | Rain* | Wind** | Luminosity | Snow |
|---|---|---|---|---|---|---|---|
| 1777724823 | 25° C | 25% | 994.6 hPa | 0 mm | 2.68 m/s, 81° | - | - |
| 1777724222 | 24.44° C | 26% | 994.8 hPa | 0 mm | 0.45 m/s, 89° | - | - |
| 1777723621 | 24.44° C | 25% | 995 hPa | 0 mm | 5.36 m/s, 150° | - | - |
| 1777723020 | 23.89° C | 26% | 995.2 hPa | 0 mm | 4.02 m/s, 166° | - | - |
| 1777722419 | 24.44° C | 28% | 995.2 hPa | 0 mm | 2.68 m/s, 198° | - | - |
| 1777721818 | 25° C | 26% | 995.3 hPa | 0 mm | 8.49 m/s, 56° | - | - |
| 1777721218 | 24.44° C | 25% | 995.5 hPa | 0 mm | 1.34 m/s, 183° | - | - |
| 1777720617 | 24.44° C | 25% | 995.7 hPa | 0 mm | 0.45 m/s, 60° | - | - |
| 1777720016 | 24.44° C | 26% | 995.7 hPa | 0 mm | 4.02 m/s, 228° | - | - |
| 1777719415 | 24.44° C | 25% | 995.9 hPa | 0 mm | 6.71 m/s, 146° | - | - |
| 1777718814 | 24.44° C | 27% | 995.8 hPa | 0 mm | 0.45 m/s, 237° | - | - |
| 1777718213 | 24.44° C | 26% | 995.7 hPa | 0 mm | 2.24 m/s, 71° | - | - |
| 1777717612 | 23.89° C | 27% | 996 hPa | 0 mm | 4.47 m/s, 168° | - | - |
| 1777717012 | 23.89° C | 26% | 996.2 hPa | 0 mm | 2.68 m/s, 102° | - | - |
| 1777716410 | 23.33° C | 27% | 996.6 hPa | 0 mm | 1.34 m/s, 211° | - | - |
| 1777715810 | 23.33° C | 28% | 996.5 hPa | 0 mm | 2.68 m/s, 119° | - | - |
| 1777715209 | 23.89° C | 28% | 996.6 hPa | 0 mm | 4.47 m/s, 176° | - | - |
| 1777714608 | 23.33° C | 30% | 996.8 hPa | 0 mm | 4.92 m/s, 142° | - | - |
| 1777714007 | 23.33° C | 28% | 996.8 hPa | 0 mm | 6.26 m/s, 85° | - | - |
| 1777713406 | 23.33° C | 30% | 996.8 hPa | 0 mm | 1.34 m/s, 60° | - | - |
| 1777712805 | 22.78° C | 31% | 996.9 hPa | 0 mm | 3.58 m/s, 291° | - | - |
| 1777712204 | 22.78° C | 32% | 997 hPa | 0 mm | 1.34 m/s, 17° | - | - |
| 1777711603 | 22.78° C | 33% | 997 hPa | 0 mm | 4.02 m/s, 104° | - | - |
| 1777711002 | 22.22° C | 33% | 997 hPa | 0 mm | 4.02 m/s, 263° | - | - |
| 1777710401 | 22.22° C | 35% | 997.2 hPa | 0 mm | 3.58 m/s, 220° | - | - |
* Rain since midnight (hover to see other rain measurements)
** Current wind speed in m/s (hover to see current wind gust speed)